Zurück zum Katalog

STARLINK-2217

AktivKommunikationVLEO
NORAD 48568·PAYLOAD·🇺🇸 United States

Gestartet May 15, 2021 von Cape Canaveral Space Force Station

Loading…

Nächste Überflüge (nächste 24 Stunden)

TLE

AktuellSource: CelesTrak SupGP

Epoche: Sep 14, 2026, 14:31 UTC

1 48568C 21041R   26257.60534722  .00043929  00000+0  14122-2 0  2575
2 48568  53.1589 327.9754 0001090  77.5192 254.6004 15.31689824    11

Verfolge STARLINK-2217 in Echtzeit mit AllMySat

Download on the App Store